DateTimeUTC,F1_A11,F1_S11,BsB_S11,BsG_S11,BsR_S11,BbsB_S11,BbsG_S11,BbsR_S11,BaB_A11,BaG_A11,BaR_A11,Tu_S11,T_S11,Uu_S11,U_S11,P_S11,T1_A11
2021-05-05T00:00:00Z,00000200,21000000,,,,,,,-000.11,-000.22,0000.51,16.5,23.6,,00.0,0677.6,30.9
2021-05-05T00:01:00Z,00000200,21000000,,,,,,,0000.30,0000.16,0000.12,16.5,23.6,,00.0,0677.6,30.9
2021-05-05T00:02:00Z,00000200,21000000,,,,,,,-000.29,0000.18,0000.01,16.5,23.6,,00.0,0677.6,30.9
2021-05-05T00:03:00Z,00000200,61000000,,,,,,,0001.00,0000.62,0000.45,16.5,23.6,,00.0,0677.6,30.9
2021-05-05T00:04:00Z,00000200,41000000,0002.37,0002.09,0001.49,0000.37,0000.37,0000.10,0001.12,0000.82,0000.49,16.5,23.4,,00.0,0678.5,30.9
2021-05-05T00:05:00Z,00000200,01000000,0002.61,0001.96,0001.09,0000.75,0000.66,0000.09,0000.74,0000.68,0000.57,16.4,23.3,,00.0,0678.6,30.9
2021-05-05T00:06:00Z,00000200,01000000,0002.64,0002.23,0001.18,0000.62,0000.67,0000.18,0000.68,0000.70,0000.58,16.4,23.3,,00.0,0678.6,30.9
2021-05-05T00:07:00Z,00000200,01000000,0003.11,0001.95,0001.43,0000.63,0000.71,0000.25,0000.80,0000.69,0000.38,16.3,23.2,,00.0,0678.6,30.9
2021-05-05T00:08:00Z,00000200,01000000,0002.96,0001.99,0001.21,0000.58,0000.47,0000.14,0001.02,0001.08,0000.53,16.3,23.2,,00.0,0678.6,30.8
2021-05-05T00:09:00Z,00000200,01000000,0003.29,0002.17,0001.01,0000.44,0000.43,0000.21,0000.98,0000.28,0000.70,16.3,23.2,,00.0,0678.6,30.8
2021-05-05T00:10:00Z,00000200,01000000,0003.16,0002.04,0001.43,0000.78,0000.54,0000.28,0000.90,0001.25,0000.29,16.4,23.2,,00.0,0678.6,30.9
2021-05-05T00:11:00Z,00000200,01000000,0003.11,0002.17,0001.14,0000.26,0000.28,0000.25,0000.82,0000.52,0000.84,16.5,23.2,,00.0,0678.6,30.9
2021-05-05T00:12:00Z,00000200,01000000,0002.54,0001.90,0001.30,0000.40,0000.68,0000.16,0000.92,0001.00,0000.47,16.6,23.3,,00.0,0678.6,30.9
2021-05-05T00:13:00Z,00000200,01000000,0003.54,0002.02,0001.21,0000.35,0000.44,0000.52,0000.84,0000.62,0001.17,16.7,23.3,,00.0,0678.6,30.9
2021-05-05T00:14:00Z,00000200,01000000,0003.04,0002.24,0001.17,0000.48,0000.41,-000.07,0001.58,0001.29,0000.12,16.7,23.3,,00.0,0678.5,30.9
2021-05-05T00:15:00Z,00000200,01000000,0002.77,0002.10,0001.34,0000.76,0000.48,0000.41,0000.57,0000.59,0000.85,16.7,23.3,,00.0,0678.5,30.9
2021-05-05T00:16:00Z,00000200,01000000,0001.97,0002.25,0000.83,0000.43,0000.53,0000.25,0000.92,0001.05,0000.74,16.7,23.3,,00.0,0678.5,30.9
2021-05-05T00:17:00Z,00000200,01000000,0003.13,0002.03,0000.95,0000.11,0000.64,0000.19,0000.86,0000.61,0000.41,16.6,23.3,,00.0,0678.5,30.9
2021-05-05T00:18:00Z,00000200,01000000,0003.53,0002.13,0001.26,0000.74,0000.45,0000.43,0001.03,0000.79,0000.69,16.5,23.2,,00.0,0678.5,30.9
2021-05-05T00:19:00Z,00000200,01000000,0003.04,0002.33,0001.20,0000.76,0000.51,0000.29,0000.66,0000.83,0000.75,16.4,23.2,,00.0,0678.5,30.9
2021-05-05T00:20:00Z,00000200,01000000,0003.43,0002.27,0001.32,0000.36,0000.45,-000.01,0001.16,0001.01,0000.34,16.3,23.2,,00.0,0678.5,30.8
2021-05-05T00:21:00Z,00000200,01000000,0003.21,0002.07,0001.37,0000.34,0000.57,0000.10,0001.04,0000.89,0000.63,16.2,23.1,,00.0,0678.5,30.8
2021-05-05T00:22:00Z,00000200,01000000,0003.09,0002.08,0001.19,0000.50,0000.73,0000.16,0000.66,0000.65,0000.86,16.2,23.1,,00.0,0678.5,30.8
2021-05-05T00:23:00Z,00000200,01000000,0003.34,0002.21,0001.11,0000.46,0000.43,0000.31,0000.93,0000.20,0000.35,16.1,23.1,,00.0,0678.5,30.8
2021-05-05T00:24:00Z,00000200,01000000,0003.41,0001.93,0001.62,0000.70,0000.39,0000.31,0000.73,0000.96,0000.33,16.2,23.1,,00.0,0678.5,30.8
2021-05-05T00:25:00Z,00000200,01000000,0003.09,0002.36,0001.49,0001.07,0000.42,0000.13,0001.15,0000.89,0000.30,16.3,23.1,,00.0,0678.5,30.8
2021-05-05T00:26:00Z,00000200,01000000,0003.37,0002.51,0001.41,0000.35,0000.46,0000.35,0001.46,0001.12,0001.30,16.4,23.1,,00.0,0678.5,30.9
2021-05-05T00:27:00Z,00000200,01000000,0003.61,0001.93,0001.40,0000.23,0000.43,0000.28,0000.56,0001.10,0000.76,16.5,23.2,,00.0,0678.4,30.9
2021-05-05T00:28:00Z,00000200,01000000,0003.43,0002.13,0001.50,0001.00,0000.62,0000.51,0001.21,0000.93,0000.56,16.6,23.2,,00.0,0678.4,30.9
2021-05-05T00:29:00Z,00000200,01000000,0002.70,0002.42,0001.31,0000.67,0000.68,0000.34,0001.06,0001.08,0000.64,16.7,23.2,,00.0,0678.4,30.9
2021-05-05T00:30:00Z,00000200,01000000,0003.47,0002.31,0001.31,0000.64,0000.61,0000.19,0001.04,0000.61,0000.87,16.7,23.3,,00.0,0678.4,30.9
2021-05-05T00:31:00Z,00000200,01000000,0002.56,0002.28,0001.84,0000.31,0000.84,0000.27,0001.19,0001.40,0000.85,16.7,23.3,,00.0,0678.4,30.9
2021-05-05T00:32:00Z,00000200,01000000,0004.04,0002.41,0001.35,0000.54,0000.71,0000.36,0001.32,0000.87,0000.81,16.6,23.2,,00.0,0678.4,30.9
2021-05-05T00:33:00Z,00000200,01000000,0004.01,0002.96,0001.67,0000.67,0000.50,0000.54,0000.85,0000.97,0000.78,16.6,23.2,,00.0,0678.4,30.9
2021-05-05T00:34:00Z,00000200,01000000,0004.49,0002.95,0001.43,0000.33,0000.64,0000.23,0001.17,0001.12,0000.42,16.5,23.2,,00.0,0678.4,30.9
2021-05-05T00:35:00Z,00000200,01000000,0004.12,0002.69,0001.33,0000.49,0000.52,0000.31,0000.90,0001.00,0001.04,16.4,23.2,,00.0,0678.4,30.9
2021-05-05T00:36:00Z,00000200,01000000,0003.76,0002.73,0001.62,0000.60,0000.32,0000.60,0001.58,0000.72,0000.72,16.3,23.1,,00.0,0678.4,30.8
2021-05-05T00:37:00Z,00000200,01000000,0004.12,0002.54,0001.69,0001.00,0000.81,0000.28,0000.75,0000.84,0000.53,16.2,23.1,,00.0,0678.4,30.8
2021-05-05T00:38:00Z,00000200,01000000,0003.37,0002.55,0001.79,0000.40,0000.57,0000.22,0001.01,0000.58,0000.39,16.2,23.0,,00.0,0678.4,30.8
2021-05-05T00:39:00Z,00000200,01000000,0003.63,0002.36,0001.50,0000.12,0000.36,0000.36,0000.97,0001.37,0000.80,16.3,23.0,,00.0,0678.4,30.8
2021-05-05T00:40:00Z,00000200,01000000,0003.40,0002.29,0001.46,0000.45,0000.32,0000.21,0001.20,0000.53,0000.55,16.3,23.0,,00.0,0678.4,30.8
2021-05-05T00:41:00Z,00000200,01000000,0003.58,0002.49,0001.24,0000.29,0000.61,0000.14,0000.93,0001.26,0000.80,16.4,23.1,,00.0,0678.4,30.9
2021-05-05T00:42:00Z,00000200,01000000,0002.86,0002.04,0001.27,0000.44,0000.52,0000.13,0001.18,0000.73,0000.98,16.5,23.1,,00.0,0678.4,30.9
2021-05-05T00:43:00Z,00000200,01000000,0003.33,0002.35,0001.58,0000.25,0000.32,0000.28,0000.90,0001.13,0000.63,16.6,23.2,,00.0,0678.4,30.9
2021-05-05T00:44:00Z,00000200,01000000,0003.80,0002.48,0001.48,0000.78,0000.84,0000.16,0001.31,0000.89,0000.93,16.7,23.2,,00.0,0678.4,30.9
2021-05-05T00:45:00Z,00000200,01000000,0003.43,0002.47,0001.29,0000.50,0000.41,0000.65,0000.78,0001.11,0000.58,16.7,23.2,,00.0,0678.4,30.9
2021-05-05T00:46:00Z,00000200,01000000,0003.65,0002.40,0001.79,0000.12,0000.75,0000.41,0001.01,0001.39,0000.66,16.7,23.2,,00.0,0678.4,30.9
2021-05-05T00:47:00Z,00000200,01000000,0003.67,0002.57,0001.39,0000.19,0000.51,0000.09,0001.16,0000.63,0001.04,16.6,23.2,,00.0,0678.4,30.9
2021-05-05T00:48:00Z,00000200,01000000,0003.21,0002.69,0001.71,0000.56,0000.77,0000.48,0001.44,0001.47,0000.34,16.5,23.2,,00.0,0678.4,30.9
2021-05-05T00:49:00Z,00000200,01000000,0003.29,0002.90,0001.75,0000.96,0000.54,0000.32,0001.01,0000.59,0001.12,16.4,23.1,,00.0,0678.4,30.9
2021-05-05T00:50:00Z,00000200,01000000,0003.98,0002.78,0001.79,0000.59,0000.40,0000.53,0000.80,0000.88,0000.24,16.4,23.1,,00.0,0678.4,30.8
2021-05-05T00:51:00Z,00000200,01000000,0004.48,0002.78,0001.89,0000.74,0000.40,0000.23,0001.46,0001.22,0001.14,16.3,23.1,,00.0,0678.4,30.8
2021-05-05T00:52:00Z,00000200,01000000,0004.39,0002.61,0001.51,0000.89,0000.58,0000.30,0000.87,0000.58,0000.20,16.2,23.0,,00.0,0678.4,30.8
2021-05-05T00:53:00Z,00000200,01000000,0004.13,0002.67,0001.84,0000.89,0000.69,0000.26,0001.09,0000.84,0000.84,16.2,23.0,,00.0,0678.4,30.8
2021-05-05T00:54:00Z,00000200,01000000,0004.12,0002.55,0001.54,0000.22,0000.82,0000.14,0001.23,0000.91,0000.74,16.2,23.0,,00.0,0678.4,30.8
2021-05-05T00:55:00Z,00000200,01000000,0003.44,0002.57,0001.34,0000.34,0000.67,0000.19,0000.99,0001.02,0000.75,16.3,23.0,,00.0,0678.4,30.8
2021-05-05T00:56:00Z,00000200,01000000,0003.55,0002.83,0001.29,0000.66,0000.47,0000.35,0001.16,0001.03,0000.79,16.4,23.0,,00.0,0678.4,30.8
2021-05-05T00:57:00Z,00000200,41000000,,,,,,,0000.13,0000.38,-000.32,16.5,23.1,,00.0,0678.4,30.9
2021-05-05T00:58:00Z,00000200,61000000,,,,,,,-000.20,-000.38,0000.59,16.3,23.3,,00.0,0677.3,30.9
2021-05-05T00:59:00Z,00000200,21000000,,,,,,,-000.10,0000.39,-000.48,16.3,23.4,,00.0,0677.3,30.9
